Chicago Midway, IL

1:22 PM CST on December 05, 2019 (GMT -0600)
Chicago-Midway

Weather History for KMDW - October, 2019

Change the Weather History Date:

Sunday, October 6, 2019

  Actual Average Record
Temperature  
Mean Temperature 60 °F 58 °F  
Max Temperature 69 °F 67 °F 94 °F (1963)
Min Temperature 51 °F 49 °F 28 °F (1952)
Degree Days  
Heating Degree Days 5 8  
Month to date heating degree days 28 44  
Since 1 July heating degree days 29 126  
Cooling Degree Days 0 1  
Month to date cooling degree days 21 6  
Year to date cooling degree days 1131 1035  
Growing Degree Days 10 (Base 50)    
Moisture  
Dew Point 45 °F    
Average Humidity 58    
Maximum Humidity 87    
Minimum Humidity 26    
Precipitation  
Precipitation 0.00 in 0.10 in 1.57 in (1955)
Month to date precipitation 0.87 0.60  
Year to date precipitation 38.69 30.46  
Sea Level Pressure  
Sea Level Pressure 30.07 in    
Wind  
Wind Speed 10 mph (West)    
Max Wind Speed 18 mph    
Max Gust Speed 23 mph    
Visibility 10 miles    
Events      
T = Trace of Precipitation, MM = Missing Value Source: NWS Daily Summary

Daily Weather History Graph

Daily Weather History Graph

Search for Another Location

Airport or City:

Astronomy

Oct. 06, 2019 Rise Set
Actual Time 6:53 AM CDT 6:24 PM CDT
Civil Twilight 6:25 AM CDT 6:52 PM CDT
Nautical Twilight 5:53 AM CDT 7:24 PM CDT
Astronomical Twilight 5:20 AM CDT 7:56 PM CDT
Moon 3:09 PM CDT (10/6) No Moon Set
Length of Visible Light 12h 27m
Length of Day
11h 31m
First Quarter, 60% of the Moon is Illuminated
Oct 6
First Quarter
Oct 13
Full
Oct 21
Last Quarter
Oct 27
New
Nov 4
First Quarter

Hourly Weather History & Observations

Time (CDT) Temp. Dew Point Humidity Pressure Visibility Wind Dir Wind Speed Gust Speed Precip Events Conditions
12:53 AM 60.1 °F 55.0 °F 83% 29.92 in 10.0 mi SW 8.1 mph - N/A   Overcast
1:53 AM 60.1 °F 55.9 °F 86% 29.94 in 10.0 mi West 8.1 mph - N/A   Overcast
2:53 AM 59.0 °F 55.0 °F 87% 29.94 in 10.0 mi West 12.7 mph 19.6 mph N/A   Scattered Clouds
3:53 AM 55.9 °F 46.9 °F 72% 29.96 in 10.0 mi West 8.1 mph - N/A   Partly Cloudy
4:53 AM 54.0 °F 45.0 °F 72% 29.99 in 10.0 mi WNW 5.8 mph - N/A   Clear
5:53 AM 53.1 °F 45.0 °F 74% 30.02 in 10.0 mi West 5.8 mph - N/A   Clear
6:53 AM 51.1 °F 44.1 °F 77% 30.04 in 10.0 mi WSW 4.6 mph - N/A   Scattered Clouds
7:53 AM 52.0 °F 46.0 °F 80% 30.07 in 10.0 mi WSW 5.8 mph - N/A   Partly Cloudy
8:53 AM 54.0 °F 46.0 °F 75% 30.08 in 10.0 mi SW 6.9 mph - N/A   Partly Cloudy
9:53 AM 59.0 °F 45.0 °F 60% 30.10 in 10.0 mi West 11.5 mph - N/A   Partly Cloudy
10:53 AM 63.0 °F 45.0 °F 52% 30.11 in 10.0 mi WNW 9.2 mph 20.7 mph N/A   Partly Cloudy
11:53 AM 64.9 °F 45.0 °F 48% 30.12 in 10.0 mi West 11.5 mph 18.4 mph N/A   Scattered Clouds
12:53 PM 66.9 °F 42.1 °F 40% 30.10 in 10.0 mi West 13.8 mph - N/A   Scattered Clouds
1:53 PM 68.0 °F 39.9 °F 36% 30.09 in 10.0 mi WNW 12.7 mph 23.0 mph N/A   Scattered Clouds
2:53 PM 68.0 °F 39.9 °F 36% 30.09 in 10.0 mi WNW 17.3 mph - N/A   Scattered Clouds
3:53 PM 66.9 °F 39.9 °F 37% 30.09 in 10.0 mi West 13.8 mph - N/A   Mostly Cloudy
4:53 PM 64.9 °F 39.9 °F 40% 30.11 in 10.0 mi West 11.5 mph 18.4 mph N/A   Overcast
5:53 PM 64.0 °F 41.0 °F 43% 30.10 in 10.0 mi West 8.1 mph - N/A   Overcast
6:53 PM 62.1 °F 42.1 °F 48% 30.10 in 10.0 mi WSW 9.2 mph - N/A   Overcast
7:53 PM 61.0 °F 43.0 °F 52% 30.12 in 10.0 mi WSW 10.4 mph - N/A   Overcast
8:53 PM 59.0 °F 43.0 °F 55% 30.12 in 10.0 mi WSW 9.2 mph - N/A   Overcast
9:53 PM 60.1 °F 44.1 °F 55% 30.13 in 10.0 mi WSW 9.2 mph - N/A   Overcast
10:53 PM 57.9 °F 44.1 °F 60% 30.13 in 10.0 mi WSW 9.2 mph - N/A   Overcast
11:53 PM 57.0 °F 46.0 °F 67% 30.14 in 10.0 mi West 6.9 mph - N/A   Overcast